Date String (YYYY-MM-DD hh:mm:ss) UTC,Instrument flags,Ambient pressure (hPa),Sample flow (lpm),Bypass flow (lpm),Sample temperature (°C),Ambient temperature (°C),ASC tube jacket temperature (°C),LED temperature (°C),Box temperature (°C),Sample RH (%),Span deviation,Mass concentration (μg/m³),Mass concentration (μg/m³),Mass concentration (μg/m³)
DateTimeUTC,F1_M11,P_M11,Q1_M11,Q2_M11,T1_M11,T2_M11,T3_M11,T4_M11,T5_M11,U1_M11,ZSPAN_M11,X0_M11,X2_M11,X1_M11
2021-10-24 16:00:00,,0822.3,5.01,0.00,28.2,27.4,00.0,37.2,30.0,15.4,0000.0,0001.45,0000.32,0000.19
2021-10-24 16:01:00,,0822.4,4.99,0.00,28.2,27.4,00.0,37.2,30.0,14.9,0000.0,0001.46,0000.34,0000.21
2021-10-24 16:02:00,,0822.4,4.99,0.00,28.2,27.4,00.0,37.2,30.0,13.7,0000.0,0001.07,0000.36,0000.23
2021-10-24 16:03:00,,0822.4,5.00,0.00,28.2,27.3,00.0,37.2,29.9,13.1,0000.0,0001.24,0000.40,0000.24
2021-10-24 16:04:00,,0822.4,5.01,0.00,28.2,27.3,00.0,37.2,29.9,13.0,0000.0,0001.27,0000.42,0000.25
2021-10-24 16:05:00,,0822.4,5.00,0.00,28.2,27.3,00.0,37.2,30.0,12.8,0000.0,0001.27,0000.43,0000.27
2021-10-24 16:06:00,,0822.4,5.00,0.00,28.2,27.3,00.0,37.2,30.0,13.0,0000.0,0001.24,0000.42,0000.28
2021-10-24 16:07:00,,0822.4,5.00,0.00,28.2,27.3,00.0,37.3,30.0,12.9,0000.0,0001.30,0000.43,0000.29
2021-10-24 16:08:00,,0822.3,5.00,0.00,28.2,27.3,00.0,37.3,30.0,12.7,0000.0,0001.42,0000.48,0000.30
2021-10-24 16:09:00,,0822.3,4.99,0.00,28.2,27.3,00.0,37.3,30.0,12.5,0000.0,0001.32,0000.47,0000.30
2021-10-24 16:10:00,,0822.4,5.01,0.00,28.2,27.3,00.0,37.3,30.0,12.5,0000.0,0001.30,0000.44,0000.29
2021-10-24 16:11:00,,0822.4,5.02,0.00,28.3,27.3,00.0,37.3,30.0,12.5,0000.0,0001.25,0000.43,0000.27
2021-10-24 16:12:00,,0822.3,5.00,0.00,28.3,27.3,00.0,37.3,30.0,12.4,0000.0,0001.22,0000.40,0000.26
2021-10-24 16:13:00,,0822.3,5.00,0.00,28.3,27.3,00.0,37.3,30.0,12.3,0000.0,0002.06,0000.42,0000.25
2021-10-24 16:14:00,,0822.2,4.99,0.00,28.3,27.4,00.0,37.3,30.0,12.3,0000.0,0003.09,0000.42,0000.26
2021-10-24 16:15:00,,0822.2,4.98,0.00,28.3,27.4,00.0,37.3,30.0,12.0,0000.0,0003.84,0000.44,0000.26
2021-10-24 16:16:00,,0822.2,5.00,0.00,28.3,27.3,00.0,37.3,30.0,11.7,0000.0,0003.91,0000.46,0000.26
2021-10-24 16:17:00,,0822.2,5.00,0.00,28.3,27.3,00.0,37.4,30.0,11.9,0000.0,0003.93,0000.46,0000.26
2021-10-24 16:18:00,,0822.1,5.01,0.00,28.3,27.3,00.0,37.4,29.9,11.8,0000.0,0003.89,0000.45,0000.25
2021-10-24 16:19:00,,0822.0,5.01,0.00,28.3,27.3,00.0,37.4,30.0,11.7,0000.0,0003.81,0000.43,0000.25
2021-10-24 16:20:00,,0821.9,5.00,0.00,28.3,27.3,00.0,37.4,30.0,11.7,0000.0,0003.76,0000.41,0000.25
2021-10-24 16:21:00,,0822.0,5.00,0.00,28.2,27.3,00.0,37.4,29.9,11.8,0000.0,0003.81,0000.42,0000.25
2021-10-24 16:22:00,,0822.1,4.99,0.00,28.2,27.2,00.0,37.4,29.9,11.9,0000.0,0003.89,0000.46,0000.26
2021-10-24 16:23:00,,0822.2,4.99,0.00,28.2,27.2,00.0,37.4,30.0,11.6,0000.0,0003.98,0000.50,0000.27
2021-10-24 16:24:00,,0822.2,5.00,0.00,28.2,27.2,00.0,37.4,29.9,11.7,0000.0,0003.22,0000.49,0000.28
2021-10-24 16:25:00,,0822.0,5.02,0.00,28.2,27.2,00.0,37.4,29.9,11.7,0000.0,0001.86,0000.47,0000.28
2021-10-24 16:26:00,,0822.0,4.99,0.00,28.2,27.2,00.0,37.4,30.0,14.7,0000.0,0002.21,0000.67,0000.41
2021-10-24 16:27:00,,0822.2,5.00,0.00,28.3,27.3,00.0,37.4,30.0,14.8,0000.0,0003.71,0001.07,0000.66
2021-10-24 16:28:00,,0822.2,5.01,0.00,28.3,27.3,00.0,37.4,30.0,13.5,0000.0,0004.72,0001.29,0000.80
2021-10-24 16:29:00,,0822.1,4.99,0.00,28.3,27.3,00.0,37.4,30.0,12.2,0000.0,0006.01,0001.36,0000.85
2021-10-24 16:30:00,,0822.2,5.00,0.00,28.3,27.3,00.0,37.4,30.0,11.8,0000.0,0006.40,0001.36,0000.86
2021-10-24 16:31:00,,0822.2,5.00,0.00,28.3,27.3,00.0,37.4,30.0,11.8,0000.0,0006.45,0001.39,0000.86
2021-10-24 16:32:00,,0822.1,5.01,0.00,28.3,27.2,00.0,37.4,30.0,11.8,0000.0,0006.38,0001.39,0000.86
2021-10-24 16:33:00,,0822.2,5.00,0.00,28.3,27.2,00.0,37.4,30.0,11.6,0000.0,0006.26,0001.35,0000.85
2021-10-24 16:34:00,,0822.1,5.00,0.00,28.3,27.2,00.0,37.4,30.0,11.7,0000.0,0006.24,0001.33,0000.84
2021-10-24 16:35:00,,0822.1,5.01,0.00,28.3,27.3,00.0,37.4,30.0,11.6,0000.0,0006.32,0001.33,0000.85
2021-10-24 16:36:00,,0822.1,5.00,0.00,28.3,27.2,00.0,37.4,30.0,11.9,0000.0,0006.55,0001.34,0000.85
2021-10-24 16:37:00,,0822.1,5.00,0.00,28.3,27.2,00.0,37.4,30.0,16.1,0000.0,0006.29,0001.60,0001.02
2021-10-24 16:38:00,,0822.2,4.99,0.00,28.3,27.3,00.0,37.4,30.1,15.3,0000.0,0006.65,0001.81,0001.18
2021-10-24 16:39:00,,0822.3,4.99,0.00,28.3,27.4,00.0,37.4,30.1,15.8,0000.0,0007.18,0002.07,0001.37
2021-10-24 16:40:00,,0822.3,5.00,0.00,28.4,27.5,00.0,37.4,30.2,17.0,0000.0,0008.69,0002.74,0001.84
2021-10-24 16:41:00,,0822.4,4.99,0.00,28.4,27.5,00.0,37.5,30.2,17.1,0000.0,0009.72,0003.37,0002.40
2021-10-24 16:42:00,,0822.4,5.01,0.00,28.4,27.5,00.0,37.5,30.2,17.1,0000.0,0011.60,0003.79,0002.93
2021-10-24 16:43:00,,0822.4,5.00,0.00,28.4,27.5,00.0,37.5,30.2,16.9,0000.0,0013.14,0004.22,0003.30
2021-10-24 16:44:00,,0822.4,5.01,0.00,28.4,27.6,00.0,37.5,30.2,16.7,0000.0,0014.53,0004.62,0003.58
2021-10-24 16:45:00,,0822.5,5.00,0.00,28.5,27.6,00.0,37.5,30.3,16.7,0000.0,0015.89,0005.01,0003.82
2021-10-24 16:46:00,,0822.4,5.01,0.00,28.5,27.7,00.0,37.5,30.3,16.6,0000.0,0016.59,0005.41,0004.09
2021-10-24 16:47:00,,0822.4,4.99,0.00,28.5,27.7,00.0,37.5,30.3,13.1,0000.0,0017.25,0005.59,0004.23
2021-10-24 16:48:00,,0822.4,5.01,0.00,28.5,27.7,00.0,37.5,30.3,15.1,0000.0,0017.24,0005.57,0004.22
2021-10-24 16:49:00,,0822.5,5.00,0.00,28.6,27.7,00.0,37.6,30.3,15.4,0000.2,0017.27,0005.54,0004.19
2021-10-24 16:50:00,,0822.4,4.99,0.00,28.6,27.8,00.0,37.6,30.4,12.6,0000.2,0016.92,0005.43,0004.12
2021-10-24 16:51:00,,0822.4,5.01,0.00,28.6,27.7,00.0,37.6,30.3,12.0,0000.0,0014.92,0005.04,0003.84
2021-10-24 16:52:00,,0822.4,5.00,0.00,28.6,27.7,00.0,37.6,30.4,13.5,0000.0,0014.27,0004.69,0003.60
2021-10-24 16:53:00,,0822.4,5.00,0.00,28.6,27.8,00.0,37.6,30.4,14.0,0000.0,0013.67,0004.50,0003.44
2021-10-24 16:54:00,,0822.4,4.99,0.00,28.6,27.7,00.0,37.6,30.4,13.5,0000.0,0012.08,0004.23,0003.28
2021-10-24 16:55:00,,0822.4,4.99,0.00,28.6,27.7,00.0,37.6,30.4,13.4,0000.0,0011.09,0003.94,0003.06
2021-10-24 16:56:00,,0822.4,5.00,0.00,28.7,27.8,00.0,37.7,30.4,12.8,0000.0,0009.55,0003.64,0002.71
2021-10-24 16:57:00,,0822.4,5.00,0.00,28.7,27.8,00.0,37.7,30.4,12.3,0000.0,0008.94,0003.30,0002.30
2021-10-24 16:58:00,,0822.5,5.01,0.00,28.7,27.7,00.0,37.7,30.4,11.6,0000.0,0008.21,0003.07,0002.00
2021-10-24 16:59:00,,0822.4,5.00,0.00,28.7,27.7,00.0,37.7,30.4,11.5,0000.0,0007.82,0002.78,0001.82
